Regional Weather Roundup
Issued by NWS

Home | Current Version | Previous Version | Text Only | Print | Product List | Glossary On
Versions: 1 2 3 4 5 6 7 8 9 10 11 12 13 14 15 16 17 18 19 20 21 22 23 24 25 26 27 28 29 30 31 32 33 34 35 36 37 38 39 40 41 42 43 44 45 46 47 48 49 50
000
ASUS43 KMPX 210710
RWRMN
WEATHER ROUNDUP FOR MINNESOTA
NATIONAL WEATHER SERVICE TWIN CITIES/CHANHASSEN MN
200 AM CDT SAT APR 21 2018


NOTE: "FAIR" INDICATES FEW OR NO CLOUDS BELOW 12,000 FEET WITH NO
SIGNIFICANT WEATHER AND/OR OBSTRUCTIONS TO VISIBILITY. N/A MEANS
CURRENT SKY AND/OR WEATHER CONDITIONS ARE NOT AVAILABLE.

MNZ060>063-068>070-210800-
   Twin Cities Metro

CITY           SKY/WX    TMP DP  RH WIND       PRES   REMARKS
TWIN CITIES    FAIR      39  27  62 CALM      30.41F
ST PAUL        FAIR      35  28  75 CALM      30.42F
CRYSTAL        FAIR      33  25  72 CALM      30.40F
BLAINE         FAIR      34  27  75 CALM      30.41F
LAKEVILLE      FAIR      28  28 100 CALM      30.41F
EDEN PRAIRIE   FAIR      34  25  69 CALM      30.40F
SOUTH ST PAUL  FAIR      35  25  68 CALM      30.41F
LAKE ELMO      FAIR      32  28  86 CALM      30.42F
$$
MNZ001>005-007-008-013>017-022>024-027-028-210800-
   Northwest Minnesota

CITY           SKY/WX    TMP DP  RH WIND       PRES   REMARKS
BEMIDJI        FAIR      32  22  66 CALM      30.37S
HALLOCK        FAIR      36  32  87 SE9       30.33S
ROSEAU         FAIR      36  30  80 S6        30.35F
WARROAD        FAIR      34  30  86 S3        30.36S
THIEF RVR FALL FAIR      37  32  82 S6        30.36F
CROOKSTON      FAIR      39  36  87 S10       30.36S
FOSSTON        FAIR      34  27  75 S6        30.37F WCI  29
DETROIT LAKES  FAIR      36  34  93 CALM      30.38F
MOORHEAD       FAIR      36  32  87 SE9       30.38R
PARK RAPIDS    FAIR      34  24  67 CALM      30.36F
MAHNOMEN       FAIR      36  32  85 S5        30.36F
$$
MNZ006-009>011-018-025>026-210800-
   North Central Minnesota

CITY           SKY/WX    TMP DP  RH WIND       PRES   REMARKS
BAUDETTE       FAIR      32  29  88 SW5       30.36R WCI  27
FLAG ISLAND    FAIR      36  28  75 CALM      30.35S
INTL FALLS     FAIR      29  24  82 CALM      30.35F
WASKISH        FAIR      34  27  75 CALM      30.37S
BIG FORK       FAIR      28  23  80 CALM      30.38S
LONGVILLE      FAIR      27  21  80 CALM      30.38F
GRAND RAPIDS   FAIR      30  22  72 CALM      30.40F
CRANE LAKE     FAIR      25  21  86 CALM      30.39S
ORR            FAIR      39  18  41 CALM      30.35S
COOK           FAIR      39  21  48 SW5       30.37F
WALKER         FAIR      34  20  57 CALM      30.37F
$$
MNZ012-019>021-037-210800-
   Northeast Minnesota

CITY           SKY/WX    TMP DP  RH WIND       PRES   REMARKS
DULUTH         FAIR      40  19  43 NW6       30.38F
ELY            FAIR      28  21  74 CALM      30.37F
HIBBING        FAIR      27  21  78 CALM      30.38S
EVELETH        FAIR      29  22  76 CALM      30.39F
DULUTH HARBOR  FAIR      39  25  56 S6        30.41S
TWO HARBORS    FAIR      45  25  45 NW7       30.37S
SILVER BAY     FAIR      34  21  60 NW3       30.36F
GRAND MARAIS     N/A     32  24  72 NE3       30.39F
G MARAIS ARPRT FAIR      32  16  51 CALM      30.37F
$$
MNZ029>031-032-039>041-046>048-054>057-064-210800-
   West Central Minnesota

CITY           SKY/WX    TMP DP  RH WIND       PRES   REMARKS
FERGUS FALLS   FAIR      36  28  75 SE7       30.37S
WHEATON        CLOUDY    34  30  86 SE3       30.40F
MORRIS         CLOUDY    34  30  86 SE5       30.37F WCI  30
ALEXANDRIA     FAIR      38  29  70 SE3       30.38F
ELBOW LAKE     FAIR      33  30  90 E6        30.39S WCI  28
WADENA         FAIR      32  30  93 CALM      30.38S
GLENWOOD       FAIR      34  32  93 CALM      30.39S
APPLETON       CLOUDY    34  28  80 CALM      30.39S
BENSON         CLOUDY    32  30  93 CALM      30.40S
ORTONVILLE     PTCLDY    32  30  93 SE3       30.38S
MADISON        CLOUDY    36  34  93 CALM      30.38S
WILLMAR        FAIR      32  30  93 E3        30.41S
$$
MNZ033>034-036-042>043-049>051-058-059-210800-
   Central Minnesota

CITY           SKY/WX    TMP DP  RH WIND       PRES   REMARKS
ST CLOUD       FAIR      29  25  85 CALM      30.40F
SAUK CENTRE    FAIR      32  30  92 CALM      30.39S
PAYNESVILLE    FAIR      31  30  96 CALM      30.40S
AITKIN         FAIR      27  21  80 CALM      30.38F
PINE RIVER     FAIR      27  23  86 CALM      30.41F
BRAINERD       FAIR      30  24  78 CALM      30.39F
STAPLES        FAIR      30  27  86 CALM      30.39S
LONG PRAIRIE   FAIR      32  30  93 CALM      30.39F
LITTLE FALLS   FAIR      32  23  69 CALM      30.40F HAZE
LITCHFIELD     FAIR      34  30  86 CALM      30.40F
BUFFALO        FAIR      31  27  83 CALM      30.42S
MAPLE LAKE     FAIR      30  28  94 CALM      30.41F
HUTCHINSON     FAIR      34  31  89 NE3       30.41S
$$
MNZ037-044-045-052-053-210800-
   East Central Minnesota

CITY           SKY/WX    TMP DP  RH WIND       PRES   REMARKS
PRINCETON      FAIR      28  25  86 CALM      30.41F
MORA           FAIR      28  23  80 CALM      30.42F
CAMBRIDGE      FAIR      30  21  69 CALM      30.41F
RUSH CITY      FAIR      31  26  81 CALM      30.41F
MOOSE LAKE     FAIR      32  23  69 CALM      30.38F
HINCKLEY       FAIR      30  25  80 CALM      30.41S
CLOQUET        FAIR      30  19  64 W6        30.39S WCI  24
MCGREGOR       FAIR      30  23  74 CALM      30.41S
$$
MNZ071>073-080-081-089-090-097-098-210800-
   Southwest Minnesota

CITY           SKY/WX    TMP DP  RH WIND       PRES   REMARKS
MONTEVIDEO     PTCLDY    34  28  80 CALM      30.39S
GRANITE FALLS  CLOUDY    35  32  88 CALM      30.41R
CANBY          CLOUDY    35  33  92 CALM      30.39S
MARSHALL       PTCLDY    34  31  88 S3        30.39R
REDWOOD FALLS  CLOUDY    34  29  82 S6        30.39R WCI  29
OLIVIA         CLOUDY    36  30  80 CALM      30.38S
PIPESTONE      CLOUDY   N/A N/A N/A SE7       30.36R
WINDOM         CLOUDY    36  19  51 SE3       30.38F
WORTHINGTON    LGT RAIN  35  30  82 SE6       30.38S WCI  30
JACKSON        CLOUDY    36  30  80 E3        30.38F
TRACY          CLOUDY    40  30  68 S5        30.37F
SLAYTON        CLOUDY    33  31  92 SE3       30.38S
$$
MNZ065>067-074>077-082>085-091>093-210800-
   South Central Minnesota

CITY           SKY/WX    TMP DP  RH WIND       PRES   REMARKS
MANKATO        FAIR      36  28  73 E5        30.41S
NEW ULM        CLOUDY    36  27  69 SE3       30.40R
ST JAMES       CLOUDY    36  30  80 CALM      30.41S
FAIRMONT       CLOUDY    37  28  70 SE3       30.40S
GLENCOE        FAIR      32  31  96 CALM      30.39F
FARIBAULT      FAIR      34  28  80 CALM      30.40F
OWATONNA       FAIR      34  30  86 CALM      30.40F
WASECA         FAIR      36  30  80 E5        30.41S
ALBERT LEA     CLOUDY    36  27  69 CALM      30.40R
$$
MNZ078>079-086>088-094>096-210800-
   Southeast Minnesota

CITY           SKY/WX    TMP DP  RH WIND       PRES   REMARKS
ROCHESTER      FAIR      36  25  64 NE6       30.40F
RED WING       FAIR      30  25  80 CALM      30.41F
STANTON        FAIR      32  29  90 CALM      30.40F
DODGE CENTER   FAIR      36  27  69 NE3       30.40F
WINONA         FAIR      34  30  86 CALM      30.41F
AUSTIN         FAIR      36  25  64 CALM      30.39F
PRESTON        FAIR      34  22  61 NE3       30.40F
$$
ABBREVIATIONS USED IN REMARKS
   TC - TEMPERATURES IN CELSIUS
  WCI - WIND CHILL INDEX
   HX - HEAT INDEX
  VSB - VISIBILITY
$$




USA.gov is the U.S. government's official web portal to all federal, state and local government web resources and services.